星链-31379 (STARLINK-31379 )

导读

STARLINK-31379是美国SpaceX星链星座的卫星,于2024年2月15日发射升空,归属星链互联网星座组网卫星序列。星链项目旨在为全球提供高速低延迟卫星互联网服务,该卫星发射后入轨参与星座部署,进一步拓展星链星座的全球覆盖能力,支撑卫星互联网服务的持续落地与运营。

Basic Information
目录编号:
58984
目录名称:
STARLINK-31379
国际标识:
2024-031V
轨道中心:
EARTH
卫星名称:
星链-31379
卫星全名:
星链-31379 (STARLINK-31379 )
卫星状态:
在轨 (已飞行854 天)
发射日期:
2024-02-15 UTC
国别 :
美国 (US)
星等 :
--
Orbit Information
数据来源 国际轨道数据 AOE轨道数据
星历时间 2026-06-17T17:20:27+0800
21小时前
查看轨道信息
2026-06-17T02:00:00+0800
1天前
查看轨道信息
半长轴 6853.377km 6853.373km
偏心率 0.0001199 0.0001318
轨道倾角 53.160° 53.156°
近地点辐角 85.286° 81.371°
升交点赤经 193.880° 196.851°
平近点角 274.828° 355.639°
近地点 474.418km 474.332km
远地点 476.062km 476.14km
周期 94.106分钟 94.106分钟
每日圈数 15.301919 15.301932
Detailed Information
固有亮度:
5
最大亮度:
0.3
卫星平台:
Starlink v2.0 mini
覆盖范围:
全球
运营商:
太空探索技术公司
运营商所在国:
美国
制造商(研发单位):
太空探索技术公司
制造商所在国:
美国
使用方式:
暂无
Satellite Introduction
星链(Starlink)计划是由太空探索技术公司(SpaceX)提出的一个巨型低轨卫星互联网星座项目,计划在2019年至2024年间在太空搭建由约1.2万颗卫星组成的“星链”网络,其中1584颗将部署在地球上空550千米处的近地轨道,并从2020年开始工作。该卫星仍在工作。
2D Orbit Map
3D Orbit Map
Orbit Altitude Analysis Chart
Orbit Inclination Analysis Chart
Orbit Comprehensive Analysis Chart
View Comprehensive Chart